TimeMST,TemperatureF,Dew PointF,Humidity,Sea Level PressureIn,VisibilityMPH,Wind Direction,Wind SpeedMPH,Gust SpeedMPH,PrecipitationIn,Events,Conditions,WindDirDegrees,DateUTC
12:53 AM,37.0,35.1,93,29.59,10.0,East,3.5,-,0.00,,Overcast,90,2014-02-16 07:53:00
1:53 AM,37.0,34.0,89,29.57,10.0,WNW,5.8,-,0.00,Rain,Light Rain,290,2014-02-16 08:53:00
2:11 AM,35.1,33.1,92,29.56,6.0,North,-9999.0,-,0.01,Rain,Light Rain,0,2014-02-16 09:11:00
2:53 AM,39.9,35.1,83,29.60,10.0,NNE,5.8,-,0.01,,Overcast,20,2014-02-16 09:53:00
3:34 AM,41.0,34.0,76,29.57,10.0,Calm,Calm,-,N/A,,Overcast,0,2014-02-16 10:34:00
3:53 AM,39.0,34.0,82,29.61,10.0,North,5.8,-,N/A,,Overcast,10,2014-02-16 10:53:00
4:53 AM,37.0,33.1,86,29.66,10.0,WSW,9.2,-,N/A,,Overcast,250,2014-02-16 11:53:00
5:20 AM,37.0,33.1,86,29.64,10.0,Variable,6.9,-,N/A,,Overcast,0,2014-02-16 12:20:00
5:53 AM,37.9,30.0,73,29.72,10.0,NNW,3.5,-,N/A,,Overcast,340,2014-02-16 12:53:00
6:53 AM,36.0,27.0,70,29.74,10.0,SSW,8.1,-,N/A,,Mostly Cloudy,200,2014-02-16 13:53:00
7:53 AM,35.1,27.0,72,29.77,10.0,SW,4.6,-,N/A,,Overcast,220,2014-02-16 14:53:00
8:53 AM,35.1,26.1,70,29.79,10.0,West,12.7,-,N/A,,Clear,280,2014-02-16 15:53:00
9:53 AM,36.0,23.0,59,29.80,10.0,Variable,3.5,-,N/A,,Scattered Clouds,0,2014-02-16 16:53:00
10:53 AM,37.9,23.0,55,29.82,10.0,Calm,Calm,-,N/A,,Overcast,0,2014-02-16 17:53:00
11:53 AM,37.0,25.0,62,29.84,10.0,North,-9999.0,-,N/A,,Overcast,0,2014-02-16 18:53:00
12:53 PM,37.9,26.1,62,29.87,8.0,Variable,5.8,18.4,0.00,Snow,Light Snow,0,2014-02-16 19:53:00
1:53 PM,39.9,23.0,51,29.86,10.0,West,9.2,-,0.00,,Overcast,280,2014-02-16 20:53:00
2:53 PM,36.0,23.0,59,29.89,10.0,SW,27.6,39.1,N/A,,Mostly Cloudy,230,2014-02-16 21:53:00
3:11 PM,34.0,27.0,75,29.86,7.0,West,12.7,29.9,0.00,Snow,Light Snow,260,2014-02-16 22:11:00
3:53 PM,37.0,24.1,59,29.94,10.0,West,21.9,26.5,0.00,,Mostly Cloudy,280,2014-02-16 22:53:00
4:04 PM,36.0,26.1,67,29.89,10.0,WNW,16.1,-,N/A,,Overcast,290,2014-02-16 23:04:00
4:33 PM,35.1,25.0,67,29.90,6.0,West,13.8,27.6,0.00,Snow,Light Snow,260,2014-02-16 23:33:00
4:53 PM,35.1,25.0,67,29.99,10.0,WNW,6.9,-,0.00,,Mostly Cloudy,300,2014-02-16 23:53:00
5:53 PM,35.1,23.0,61,30.01,10.0,Calm,Calm,-,N/A,,Mostly Cloudy,0,2014-02-17 00:53:00
6:53 PM,35.1,23.0,61,30.05,10.0,SW,13.8,23.0,N/A,,Overcast,230,2014-02-17 01:53:00
7:53 PM,35.1,19.0,52,30.09,10.0,West,12.7,18.4,N/A,,Mostly Cloudy,260,2014-02-17 02:53:00
8:53 PM,35.1,21.9,59,30.09,10.0,ESE,5.8,-,N/A,,Overcast,120,2014-02-17 03:53:00
9:53 PM,36.0,21.0,55,30.08,10.0,SSW,6.9,17.3,N/A,,Scattered Clouds,210,2014-02-17 04:53:00
10:53 PM,33.1,19.9,59,30.06,10.0,SSE,3.5,-,N/A,,Clear,160,2014-02-17 05:53:00
11:53 PM,34.0,19.0,54,30.04,10.0,SE,10.4,-,N/A,,Partly Cloudy,140,2014-02-17 06:53:00